Regional Weather Roundup
Issued by NWS State College, PA

Home | Current Version | Previous Version | Graphics & Text | Print | Product List | Glossary On
Versions: 1 2 3 4 5 6 7 8 9 10 11 12 13 14 15 16 17 18 19 20 21 22 23 24 25 26 27 28 29 30 31 32 33 34 35 36 37 38 39 40 41 42 43 44 45 46 47 48 49 50
000
ASUS41 KCTP 250903
RWRCTP

REGIONAL WEATHER ROUNDUP
NATIONAL WEATHER SERVICE STATE COLLEGE PA
500 AM EDT TUE JUL 25 2017

Note: "fair" indicates few or no clouds below 12,000 feet with no
significant weather and/or obstructions to visibility.

* = STATION THAT DOES NOT REPORT PRECIPITATION /E.G. RAIN...SNOW...ETC/
    THUNDER OR FOG.

PAZ002>004-007>009-013>016-020>023-029>032-251000-
WESTERN PENNSYLVANIA

CITY           SKY/WX    TMP DP  RH WIND       PRES   REMARKS
ERIE           CLOUDY    65  57  75 N8        30.08R
MEADVILLE      CLOUDY    59  59 100 NW3       30.10R
FRANKLIN*      CLOUDY    57  54  88 NW3       30.10R
NEW CASTLE     CLOUDY    62  57  83 CALM      30.11R
BEAVER COUNTY  NOT AVBL
BUTLER*        CLOUDY    63  54  72 CALM      30.10R
PITTSBURGH INT CLOUDY    64  55  72 NW10      30.09S
PITTSBURGH     CLOUDY    63  53  70 VRB5      30.08S
INDIANA*       CLOUDY    63  59  88 NW6       30.11R
LATROBE        CLOUDY    63  55  77 W6        30.10R
WASHINGTON CO* CLOUDY    63  54  72 W7        30.11R
$$

PAZ004>006-010>012-017>019-024>028-033>037-041-042-045-046-049>053-251000-
CENTRAL PENNSYLVANIA

CITY           SKY/WX    TMP DP  RH WIND       PRES   REMARKS
BRADFORD       LGT RAIN  59  58  96 NW10      30.07R
DUBOIS         CLOUDY    59  56  89 W8        30.07R
CLEARFIELD     CLOUDY    62  58  86 VRB3      30.06R
JOHNSTOWN      CLOUDY    59  55  87 NW10      30.09R
ALTOONA        MOCLDY    62  56  80 NW7       30.07R
STATE COLLEGE  CLOUDY    64  57  79 W5        30.04R
WILLIAMSPORT   CLOUDY    67  60  78 W7        29.98R
SELINSGROVE    CLOUDY    63  62  97 CALM      30.00R
FT INDIANTOWN  CLEAR     66  57  71 NW6       29.98R
CAPITAL CITY   CLEAR     66  56  70 W7        29.99R
HARRISBURG     PTCLDY    67  59  75 NW8       29.98R
YORK           CLEAR     61  60  97 W5        30.00
$$

PAZ038>040-043-044-047-048-054-055-060>062-067>071-251000-
EASTERN PENNSYLVANIA

CITY           SKY/WX    TMP DP  RH WIND       PRES   REMARKS
SCRANTON       CLOUDY    66  64  93 CALM      29.98R
MOUNT POCONO   LGT RAIN  61  61 100 N3        30.01R
ALLENTOWN      CLOUDY    66  62  87 CALM      29.98R
QUAKERTOWN*    CLOUDY    63  63 100 CALM      29.99R
READING        CLOUDY    67  67 100 CALM      29.97R
LANCASTER      PTCLDY    65  64  97 W6        29.98R
COATESVILLE    NOT AVBL
POTTSTOWN      CLOUDY    64  64 100 NE6       30.00R FOG
BLUE BELL      CLOUDY    63  63 100 E3        29.99R
DOYLESTOWN     CLOUDY    63  62  97 CALM      29.98R
WILLOW GROVE   NOT AVBL
NORTH PHILA    CLOUDY    66  63  90 NE5       29.99R
PHILADELPHIA   CLOUDY    67  64  90 NE7       29.97R
$$




USA.gov is the U.S. government's official web portal to all federal, state and local government web resources and services.